Location: Lombard
(41.8800°N, 88.0080°W)
Time: 12:43:33
(UTC-05:00)

A-11 Canister half - Pass Details

Date: 07 February 2023
Orbit: 1512 x 1687 km, 47.2° (Epoch: 20 March)

Event Time Altitude Azimuth Distance (km) Brightness Sun altitude
Rises 08:41:04 0° 214° (SW) 4,896 11.7 15.9°
Reaches altitude 10° 08:44:23 10° 209° (SSW) 3,892 11.3 16.4°
Maximum altitude 08:53:45 49° 139° (SE) 2,011 10.9 17.7°
Drops below altitude 10° 09:02:49 10° 68° (ENE) 3,776 11.5 19.0°
Sets 09:05:58 0° 63° (ENE) 4,739 11.8 19.4°
